NOAA 16 DEB, 41132

Orbit data source: Space-Track

NOAA 16 DEB, 41132 is space debris in SSO originally from a launch on Thu, 21 Sep 2000 UTC launched from the Air Force Western Test Range (AFWTR). Debris objects in space refer to the collection of defunct objects orbiting the Earth. Examples of debris include non-operational satellites, rocket bodies, and fragments generated from explosions, collisions, or faulty payload assembly.

Loading next visibility...
Identifier
41132, 2000-055BP
Orbit
SSO
Last TLE update
12 hours ago
Origin
Manufacturer
Unknown
Mission
Spacecraft
Bus & Motor
Unknown
Mass
Unknown
Launch date (UTC)
2000-09-21 (25 years ago)
Launch vehicle
Unknown
Launch site
Air Force Western Test Range (AFWTR)
Object type
Payload
Rocket body
Debris
Shape & HBR
Unknown
Radar Cross Section
Small (<0.1 m²)

Expand to show TLE details & history

TLE from 12 hours ago
0 NOAA 16 DEB
1 41132U 00055BP  25182.69968440  .00006608  00000-0  15423-2 0  9992
2 41132  98.8538 334.2359 0030205 348.6997  11.3516 14.54810103498554
Epoch: 2025-07-01T16:47Z
TLE epoch observation values (Epoch: 2025-07-01T16:47:32.732Z)
Latitude
-0.00005°
Longitude
162.35814°
Altitude
691.946 km
Speed
7.521 km/s
True Right ascension
22h 16m 56s
True Declination
0° 00' 00"
Sunlit
Object was in full shadow at epoch
Visualization orbit readout
Latitude
-9.68941°
Longitude
164.38153°
Altitude
693.303 km
Speed
7.52 km/s
Apparent Right ascension
00h 36m 46s
Apparent Declination
-30° 24' 09"
Sunlit
Object is in full shadow
Visualization observer readout
Local Sidereal Time
15:59:32
Azimuth
93.219° ESE
Elevation
-48.058°
Doppler factor
1
Orbital elements
Apogee altitude
728.502 km
Perigee altitude
685.7 km
Semi-major axis
7,085.238 km
Eccentricity
0.00302
Inclination
98.8538°
RAAN
334.2359°
Arg. of periapsis
348.6997°
True anomaly
Unknown
Mean anomaly
11.3516°
Eccentric anomaly
Unknown
Mean motion
3.63925 °/min
Orbital period
98.92 mins
BSTAR
0.0015423
Loading maneuver chart data...
Loading SW <> Apogee altitude chart data...
Loading historical data...
Loading historical data...
Loading historical data...
Loading historical data...
Loading historical data...
Loading historical data...
Loading historical data...

NOAA 16 DEB Visibility forecast

Observer location: undefined°, undefined°

Span
Click to sort rows by Start time (UTC) header in descending order
Start Az.
Max El. time (UTC)
Max El. Az.
Max El.
End time (UTC)
End Az.
7 mins2025-07-02 09:26:09.076Z130.251° SE2025-07-02 09:29:09.076Z82.281° E30.206°2025-07-02 09:33:09.076Z7.722° NNE
5 mins2025-07-02 11:05:09.076Z227.15° WSW2025-07-02 11:07:09.076Z258.611° W20.253°2025-07-02 11:10:09.076Z306.373° NW
8 mins2025-07-02 23:05:09.076Z13.327° NNE2025-07-02 23:08:09.076Z8.379° NNE44.102°2025-07-02 23:13:09.076Z195.833° SSW
|